Regional Weather Roundup
Issued by NWS Northern Indiana

Home | Current Version | Previous Version | Graphics & Text | Print | Product List | Glossary On
Versions: 1 2 3 4 5 6 7 8 9 10 11 12 13 14 15 16 17 18 19 20 21 22 23 24 25 26 27 28 29 30 31 32 33 34 35 36 37 38 39 40 41 42 43 44 45 46 47 48 49 50
372
ASUS43 KIWX 191700
RWRIWX

KIWX WEATHER ROUNDUP
NATIONAL WEATHER SERVICE NORTHERN INDIANA
1200 PM EST THU JAN 19 2017

NOTE: "FAIR" INDICATES FEW OR NO CLOUDS BELOW 12,000 FEET WITH NO
SIGNIFICANT WEATHER AND/OR OBSTRUCTIONS TO VISIBILITY.

* THESE STATIONS ARE NOT UNDER NWS QUALITY CONTROL. THEY ALSO MAY NOT
  REPORT WEATHER SUCH AS PRECIPITATION OR FOG.

INZ001>027-191800-
NORTHERN INDIANA

CITY           SKY/WX    TMP DP  RH WIND       PRES   REMARKS
GARY*          CLOUDY    41  36  81 SE6       29.98F FOG
SOUTH BEND     CLOUDY    36  35  96 SE7       30.01F FOG
ELKHART*       CLOUDY    37  34  87 E6        30.01F FOG
GOSHEN         CLOUDY    37  33  85 SE8       30.01F FOG
FORT WAYNE     CLOUDY    39  34  82 SE6       30.02F HAZE

$$
INZ028>050-191800-
CENTRAL INDIANA

CITY           SKY/WX    TMP DP  RH WIND       PRES   REMARKS
LAFAYETTE      CLOUDY    41  38  89 SE8       29.96F
KOKOMO*        CLOUDY    37  36  96 SE7       30.00F FOG
MUNCIE*        CLOUDY    41  36  82 SE7       30.01F
INDIANAPOLIS   CLOUDY    44  38  79 SE13      29.99F

$$
MIZ043>046-050>051-056>058-064>065-071>073-077>080-191800-
SOUTHWEST LOWER MICHIGAN

CITY           SKY/WX    TMP DP  RH WIND       PRES   REMARKS
BATTLE CREEK   CLOUDY    36  34  92 SE3       30.02F
BENTON HARBOR  CLOUDY    39  35  86 E6        30.00F FOG
COLDWATER*     CLOUDY    36  35  96 SE6       30.02F FOG
HILLSDALE*     CLOUDY    32  32 100 SE3       30.01F FOG
HOLLAND        CLOUDY    37  34  89 S5        30.03S
GRAND RAPIDS   CLOUDY    36  32  85 E3        30.01F FOG
KALAMAZOO      CLOUDY    37  32  82 E5        30.02F HAZE
STURGIS*       CLOUDY    36  34  91 SE3       30.01F FOG
THREE RIVERS*  CLOUDY    36  33  90 SE5       30.02F FOG

$$
OHZ001>008-015>018-024>025-191800-
NORTHWEST OHIO

CITY           SKY/WX    TMP DP  RH WIND       PRES   REMARKS
DEFIANCE       CLOUDY    36  32  85 E5        30.04F
FINDLAY        CLOUDY    38  33  82 S6        30.04F
TOLEDO EXPRESS CLOUDY    35  34  96 SE5       30.06F WCI  31
TOLEDO METCALF CLOUDY    37  34  89 S5        30.07F FOG
LIMA           CLOUDY    37  36  96 SE6       30.02F

$$
AND FOR LAKE MICHIGAN COASTAL AND OPEN LAKE BUOY OBSERVATIONS

STATION/POSITION TEMP    WIND        PRES    VSBY  WAVE
                 AIR SEA DIR/SP/G                  HT/PER
                 (F)     (DEG/KT/KT) (MB)    (MI)  (FT/S)
CALUMET HARBOR    38     100/  4/  5 1014.9F
BURNS HARBOR      38     130/  6/  8 1015.9F

$$
&&




USA.gov is the U.S. government's official web portal to all federal, state and local government web resources and services.